Regional Weather Roundup
Issued by NWS Kansas City/Pleasant Hill, MO

Home | Current Version | Previous Version | Graphics & Text | Print | Product List | Glossary Off
Versions: 1 2 3 4 5 6 7 8 9 10 11 12 13 14 15 16 17 18 19 20 21 22 23 24 25 26 27 28 29 30 31 32 33 34 35 36 37 38 39 40 41 42 43 44 45 46 47 48 49 50

000
ASUS43 KEAX 211210
RWREAX

WEATHER ROUNDUP FOR EASTERN KANSAS AND NORTHWEST MISSOURI
NATIONAL WEATHER SERVICE KANSAS CITY/PLEASANT HILL MO
600 AM CST SUN DEC 21 2014

KSZ040-057-103>105-MOZ028-029-037-043-211300-
...KANSAS CITY METROPOLITAN AREA...

CITY           SKY/WX    TMP DP  RH WIND       PRES   REMARKS
K.C. INTL      CLOUDY    38  34  85 S14       30.05S WCI  30
6HR MIN TEMP:  34; 6HR MAX TEMP:  38;

K.C. DOWNTOWN  CLOUDY    39  35  86 S8        30.07S WCI  33
6HR MIN TEMP:  35; 6HR MAX TEMP:  40;

LEES SUMMIT    CLOUDY    37  36  96 S7        30.08S FOG     WCI  32
6HR MIN TEMP:  35; 6HR MAX TEMP:  37;

OLATHE - IXD   CLOUDY    37  36  96 S8        30.06F FOG     WCI  31
6HR MIN TEMP:  32; 6HR MAX TEMP:  37;

OLATHE - OJC   CLOUDY    36  36 100 S8        30.05F FOG     WCI  30
6HR MIN TEMP:  34; 6HR MAX TEMP:  36;

LAWRENCE       CLOUDY    38  35  89 S7        30.05F WCI  33

$$

MOZ001>008-011>017-020>025-030>033-038>040-044>046-053-054-211300-
...NORTHERN AND CENTRAL MISSOURI...

CITY           SKY/WX    TMP DP  RH WIND       PRES   REMARKS
ST. JOSEPH     CLOUDY    37  34  89 S8        30.04F WCI  31
6HR MIN TEMP:  32; 6HR MAX TEMP:  37;

MOSBY          CLOUDY    36  36 100 S6        30.07S WCI  31
WARRENSBURG    CLOUDY    39  36  87 SE5       30.09F
WHITEMAN AFB   NOT AVBL
CLINTON        CLOUDY    43  37  81 CALM      30.11F FOG
SEDALIA        CLOUDY    41  35  79 S8        30.12F
6HR MIN TEMP:  41; 6HR MAX TEMP:  42;

WARSAW         NOT AVBL
MARSHALL       CLOUDY    43  37  81 S7        30.13S
CHILLICOTHE      N/A     40  35  83 S7        30.09F
6HR MIN TEMP:  36; 6HR MAX TEMP:  40;

MOBERLY        CLOUDY    41  34  75 S6        30.14S
KIRKSVILLE     CLOUDY    38  36  92 S7        30.11S WCI  33
6HR MIN TEMP:  38; 6HR MAX TEMP:  39;


$$

MOZ041-047>049-056>058-063>065-088>090-097-211300-
...EASTERN AND SOUTHERN MISSOURI...

CITY           SKY/WX    TMP DP  RH WIND       PRES   REMARKS
ST. LOUIS INTL CLOUDY    41  32  70 SE9       30.22R
6HR MIN TEMP:  41; 6HR MAX TEMP:  42;

SPIRIT OF STL  CLOUDY    40  34  79 E5        30.20R
COLUMBIA       CLOUDY    41  36  82 S9        30.14S
JEFFERSON CITY CLOUDY    42  35  76 S3        30.16S
MEXICO         CLOUDY    41  41 100 SE6       30.15S
HANNIBAL       CLOUDY    41  34  75 SE6       30.15S
ROLLA          CLOUDY    39  34  82 S9        30.14R WCI  33
LEBANON        CLOUDY    39  36  87 S5        30.13S
OSAGE BEACH    CLOUDY    43  34  70 SE3       30.14S
SPRINGFIELD    CLOUDY    41  36  82 S9        30.10S
NEVADA         CLOUDY    41  39  93 S3        30.10S FOG
JOPLIN         CLOUDY    43  39  86 S8        30.09S
WEST PLAINS    CLOUDY    38  34  85 SE6       30.16F WCI  33

$$

IAZ060-094-KSZ022-034>040-054-083-096-NEZ052-066-093-211300-
...KANSAS...SOUTHEAST NEBRASKA AND IOWA...

CITY           SKY/WX    TMP DP  RH WIND       PRES   REMARKS
TOPEKA         CLOUDY   N/A N/A N/A S9        30.03F
MANHATTAN      CLOUDY    40  37  89 S7        29.97F
EMPORIA        CLOUDY    38  38 100 S8        30.02S FOG     WCI  32
CHANUTE        CLOUDY    40  38  93 SW10      30.05F WCI  33
WICHITA        CLOUDY    41  36  82 S14       30.00S WCI  33
OMAHA          CLOUDY    37  35  92 S12       29.93F FOG     WCI  29
LINCOLN        CLOUDY    39  36  89 S14       29.91F WCI  31
FALLS CITY     PTCLDY    36  33  89 S12       29.97F WCI  28
LAMONI         CLOUDY    36  34  92 S10       30.03S WCI  28
DES MOINES     CLOUDY    38  34  85 S12       30.01S WCI  30

$$




USA.gov is the U.S. government's official web portal to all federal, state and local government web resources and services.